Time,TemperatureF,DewpointF,PressureIn,WindDirection,WindDirectionDegrees,WindSpeedMPH,WindSpeedGustMPH,Humidity,HourlyPrecipIn,Conditions,Clouds,dailyrainin,SoftwareType,DateUTC
2014-10-01 00:02:00,53.4,47.5,29.96,East,90,0.0,0.0,80,0.00,,,0.00,meteohub,2014-10-01 07:02:00,
2014-10-01 00:07:00,53.4,47.5,29.96,SE,135,0.0,0.0,80,0.00,,,0.00,meteohub,2014-10-01 07:07:00,
2014-10-01 00:12:00,53.2,47.3,29.96,ESE,113,0.0,0.0,80,0.00,,,0.00,meteohub,2014-10-01 07:12:00,
2014-10-01 00:17:00,53.2,47.3,29.96,NNE,23,0.0,0.0,80,0.00,,,0.00,meteohub,2014-10-01 07:17:00,
2014-10-01 00:22:00,53.1,47.1,29.96,East,90,0.0,0.0,80,0.00,,,0.00,meteohub,2014-10-01 07:22:00,
2014-10-01 00:27:00,53.1,47.3,29.96,SW,225,0.0,0.0,81,0.00,,,0.00,meteohub,2014-10-01 07:27:00,
2014-10-01 00:32:00,53.1,47.3,29.96,SSE,158,0.0,0.0,81,0.00,,,0.00,meteohub,2014-10-01 07:32:00,
2014-10-01 00:37:00,52.9,47.3,29.96,NNE,23,0.0,0.0,81,0.00,,,0.00,meteohub,2014-10-01 07:37:00,
2014-10-01 00:42:00,52.9,47.3,29.96,South,180,0.0,0.0,81,0.00,,,0.00,meteohub,2014-10-01 07:42:00,
2014-10-01 00:46:00,52.9,47.3,29.96,ESE,113,0.0,0.0,81,0.00,,,0.00,meteohub,2014-10-01 07:46:00,
2014-10-01 00:51:00,52.7,47.1,29.96,ENE,68,0.0,0.0,81,0.00,,,0.00,meteohub,2014-10-01 07:51:00,
2014-10-01 00:56:00,52.5,46.9,29.96,ENE,68,0.0,0.0,81,0.00,,,0.00,meteohub,2014-10-01 07:56:00,
2014-10-01 01:01:00,52.5,46.9,29.96,ESE,113,0.0,0.0,81,0.00,,,0.00,meteohub,2014-10-01 08:01:00,
2014-10-01 01:06:00,52.5,46.9,29.95,ENE,68,0.0,0.0,81,0.00,,,0.00,meteohub,2014-10-01 08:06:00,
2014-10-01 01:11:00,52.5,46.9,29.95,ENE,68,0.0,0.0,81,0.00,,,0.00,meteohub,2014-10-01 08:11:00,
2014-10-01 01:16:00,52.3,46.8,29.95,NE,45,0.0,0.0,81,0.00,,,0.00,meteohub,2014-10-01 08:16:00,
2014-10-01 01:21:00,52.2,46.6,29.95,NNW,338,0.0,0.0,81,0.00,,,0.00,meteohub,2014-10-01 08:21:00,
2014-10-01 01:26:00,52.2,46.6,29.95,ESE,113,0.0,0.0,81,0.00,,,0.00,meteohub,2014-10-01 08:26:00,
2014-10-01 01:31:00,52.0,46.4,29.95,NNW,338,0.0,0.0,81,0.00,,,0.00,meteohub,2014-10-01 08:31:00,
2014-10-01 01:36:00,52.0,46.4,29.95,NNE,23,0.0,0.0,81,0.00,,,0.00,meteohub,2014-10-01 08:36:00,
2014-10-01 01:41:00,51.8,46.2,29.95,SSE,158,0.0,0.0,81,0.00,,,0.00,meteohub,2014-10-01 08:41:00,
2014-10-01 01:46:00,51.8,46.2,29.94,East,90,0.0,0.0,81,0.00,,,0.00,meteohub,2014-10-01 08:46:00,
2014-10-01 01:51:00,51.8,46.2,29.94,NE,45,0.0,0.0,81,0.00,,,0.00,meteohub,2014-10-01 08:51:00,
2014-10-01 01:56:00,51.6,46.0,29.94,NNE,23,0.0,0.0,81,0.00,,,0.00,meteohub,2014-10-01 08:56:00,
2014-10-01 02:01:00,51.6,46.0,29.94,ESE,113,0.0,0.0,81,0.00,,,0.00,meteohub,2014-10-01 09:01:00,
2014-10-01 02:06:00,51.4,46.2,29.95,ESE,113,0.0,0.0,82,0.00,,,0.00,meteohub,2014-10-01 09:06:00,
2014-10-01 02:11:00,51.4,46.2,29.95,NE,45,0.0,0.0,82,0.00,,,0.00,meteohub,2014-10-01 09:11:00,
2014-10-01 02:16:00,51.3,46.0,29.95,ESE,113,0.0,0.0,82,0.00,,,0.00,meteohub,2014-10-01 09:16:00,
2014-10-01 02:21:00,51.3,46.0,29.95,NNE,23,0.0,0.0,82,0.00,,,0.00,meteohub,2014-10-01 09:21:00,
2014-10-01 02:26:00,51.3,46.0,29.95,ENE,68,0.0,0.0,82,0.00,,,0.00,meteohub,2014-10-01 09:26:00,
2014-10-01 02:31:00,51.3,46.0,29.95,NNW,338,0.0,0.0,82,0.00,,,0.00,meteohub,2014-10-01 09:31:00,
2014-10-01 02:36:00,51.1,45.9,29.95,SSW,203,0.0,0.0,82,0.00,,,0.00,meteohub,2014-10-01 09:36:00,
2014-10-01 02:41:00,51.1,45.9,29.95,NE,45,0.0,0.0,82,0.00,,,0.00,meteohub,2014-10-01 09:41:00,
2014-10-01 02:45:00,51.1,45.9,29.94,ESE,113,0.0,0.0,82,0.00,,,0.00,meteohub,2014-10-01 09:45:00,
2014-10-01 02:50:00,51.1,45.9,29.94,SSE,158,0.0,0.0,82,0.00,,,0.00,meteohub,2014-10-01 09:50:00,
2014-10-01 02:55:00,50.9,45.7,29.94,NE,45,0.0,0.0,82,0.00,,,0.00,meteohub,2014-10-01 09:55:00,
2014-10-01 03:00:00,50.9,45.7,29.94,North,0,0.0,0.0,82,0.00,,,0.00,meteohub,2014-10-01 10:00:00,
2014-10-01 03:05:00,50.7,45.5,29.94,SSW,203,0.0,0.0,82,0.00,,,0.00,meteohub,2014-10-01 10:05:00,
2014-10-01 03:10:00,50.5,45.3,29.94,NW,315,0.0,0.0,82,0.00,,,0.00,meteohub,2014-10-01 10:10:00,
2014-10-01 03:15:00,50.5,45.3,29.94,SE,135,0.0,0.0,82,0.00,,,0.00,meteohub,2014-10-01 10:15:00,
2014-10-01 03:20:00,50.5,45.3,29.94,North,0,0.0,0.0,82,0.00,,,0.00,meteohub,2014-10-01 10:20:00,
2014-10-01 03:25:00,50.4,45.1,29.94,SSW,203,0.0,0.0,82,0.00,,,0.00,meteohub,2014-10-01 10:25:00,
2014-10-01 03:30:00,50.4,45.1,29.94,ESE,113,0.0,0.0,82,0.00,,,0.00,meteohub,2014-10-01 10:30:00,
2014-10-01 03:35:00,50.4,45.1,29.94,East,90,0.0,0.0,82,0.00,,,0.00,meteohub,2014-10-01 10:35:00,
2014-10-01 03:40:00,50.2,45.0,29.94,ENE,68,0.0,0.0,82,0.00,,,0.00,meteohub,2014-10-01 10:40:00,
2014-10-01 03:45:00,50.2,45.0,29.93,North,0,0.0,0.0,82,0.00,,,0.00,meteohub,2014-10-01 10:45:00,
2014-10-01 03:50:00,50.2,45.0,29.93,SE,135,0.0,0.0,82,0.00,,,0.00,meteohub,2014-10-01 10:50:00,
2014-10-01 03:55:00,50.0,44.8,29.93,ENE,68,0.0,0.0,82,0.00,,,0.00,meteohub,2014-10-01 10:55:00,
2014-10-01 04:00:00,50.0,44.8,29.93,ENE,68,0.0,0.0,82,0.00,,,0.00,meteohub,2014-10-01 11:00:00,
2014-10-01 04:05:00,50.0,44.8,29.93,NNE,23,0.0,0.0,82,0.00,,,0.00,meteohub,2014-10-01 11:05:00,
2014-10-01 04:10:00,50.0,44.8,29.93,NNE,23,0.0,0.0,82,0.00,,,0.00,meteohub,2014-10-01 11:10:00,
2014-10-01 04:15:00,49.8,44.8,29.93,SE,135,0.0,0.0,83,0.00,,,0.00,meteohub,2014-10-01 11:15:00,
2014-10-01 04:20:00,49.6,44.8,29.93,East,90,0.0,0.0,83,0.00,,,0.00,meteohub,2014-10-01 11:20:00,
2014-10-01 04:25:00,49.6,44.8,29.93,NE,45,0.0,0.0,83,0.00,,,0.00,meteohub,2014-10-01 11:25:00,
2014-10-01 04:30:00,49.5,44.6,29.93,North,0,0.0,0.0,83,0.00,,,0.00,meteohub,2014-10-01 11:30:00,
2014-10-01 04:35:00,49.5,44.6,29.93,West,270,0.0,0.0,83,0.00,,,0.00,meteohub,2014-10-01 11:35:00,
2014-10-01 04:40:00,49.3,44.4,29.93,ENE,68,0.0,0.0,83,0.00,,,0.00,meteohub,2014-10-01 11:40:00,
2014-10-01 04:45:00,49.3,44.4,29.93,NNE,23,0.0,0.0,83,0.00,,,0.00,meteohub,2014-10-01 11:45:00,
2014-10-01 04:50:00,49.3,44.4,29.93,NE,45,0.0,0.0,83,0.00,,,0.00,meteohub,2014-10-01 11:50:00,
2014-10-01 04:55:00,49.1,44.2,29.93,ESE,113,0.0,0.0,83,0.00,,,0.00,meteohub,2014-10-01 11:55:00,
2014-10-01 05:00:00,49.1,44.2,29.93,WSW,248,0.0,0.0,83,0.00,,,0.00,meteohub,2014-10-01 12:00:00,
2014-10-01 05:05:00,48.9,44.1,29.93,ENE,68,0.0,0.0,83,0.00,,,0.00,meteohub,2014-10-01 12:05:00,
2014-10-01 05:10:00,48.9,44.1,29.93,SE,135,0.0,0.0,83,0.00,,,0.00,meteohub,2014-10-01 12:10:00,
2014-10-01 05:15:00,48.9,44.1,29.93,East,90,0.0,0.0,83,0.00,,,0.00,meteohub,2014-10-01 12:15:00,
2014-10-01 05:20:00,48.7,43.9,29.93,NW,315,0.0,0.0,83,0.00,,,0.00,meteohub,2014-10-01 12:20:00,
2014-10-01 05:25:00,48.7,43.9,29.94,WNW,293,0.0,0.0,83,0.00,,,0.00,meteohub,2014-10-01 12:25:00,
2014-10-01 05:30:00,48.7,43.9,29.94,NE,45,0.0,0.0,83,0.00,,,0.00,meteohub,2014-10-01 12:30:00,
2014-10-01 05:35:00,48.7,43.9,29.94,ESE,113,0.0,0.0,83,0.00,,,0.00,meteohub,2014-10-01 12:35:00,
2014-10-01 05:40:00,48.6,43.7,29.94,North,0,0.0,0.0,83,0.00,,,0.00,meteohub,2014-10-01 12:40:00,
2014-10-01 05:45:00,48.6,43.7,29.94,ESE,113,0.0,0.0,83,0.00,,,0.00,meteohub,2014-10-01 12:45:00,
2014-10-01 05:50:00,48.6,43.7,29.94,NE,45,0.0,0.0,83,0.00,,,0.00,meteohub,2014-10-01 12:50:00,
2014-10-01 05:55:00,48.6,43.7,29.94,NNE,23,0.0,0.0,83,0.00,,,0.00,meteohub,2014-10-01 12:55:00,
2014-10-01 06:00:00,48.6,43.9,29.94,ESE,113,0.0,0.0,84,0.00,,,0.00,meteohub,2014-10-01 13:00:00,
2014-10-01 06:05:00,48.6,43.9,29.93,NE,45,0.0,0.0,84,0.00,,,0.00,meteohub,2014-10-01 13:05:00,
2014-10-01 06:10:00,48.6,43.9,29.93,South,180,0.0,0.0,84,0.00,,,0.00,meteohub,2014-10-01 13:10:00,
2014-10-01 06:15:00,48.6,43.9,29.93,NNW,338,0.0,0.0,84,0.00,,,0.00,meteohub,2014-10-01 13:15:00,
2014-10-01 06:20:00,48.6,43.9,29.93,NE,45,0.0,0.0,84,0.00,,,0.00,meteohub,2014-10-01 13:20:00,
2014-10-01 06:25:00,48.6,43.9,29.94,NE,45,0.0,0.0,84,0.00,,,0.00,meteohub,2014-10-01 13:25:00,
2014-10-01 06:30:00,48.4,43.7,29.94,SSE,158,0.0,0.0,84,0.00,,,0.00,meteohub,2014-10-01 13:30:00,
2014-10-01 06:35:00,48.4,43.7,29.94,ESE,113,0.0,0.0,84,0.00,,,0.00,meteohub,2014-10-01 13:35:00,
2014-10-01 06:40:00,48.4,43.7,29.94,ENE,68,0.0,0.0,84,0.00,,,0.00,meteohub,2014-10-01 13:40:00,
2014-10-01 06:44:00,48.4,43.7,29.95,ESE,113,0.0,0.0,84,0.00,,,0.00,meteohub,2014-10-01 13:44:00,
2014-10-01 06:49:00,48.4,43.7,29.95,SE,135,0.0,0.0,84,0.00,,,0.00,meteohub,2014-10-01 13:49:00,
2014-10-01 06:54:00,48.4,43.7,29.95,East,90,0.0,0.0,84,0.00,,,0.00,meteohub,2014-10-01 13:54:00,
2014-10-01 06:59:00,48.4,44.1,29.95,ENE,68,0.0,0.0,85,0.00,,,0.00,meteohub,2014-10-01 13:59:00,
2014-10-01 07:04:00,48.4,44.1,29.95,NW,315,0.0,0.0,85,0.00,,,0.00,meteohub,2014-10-01 14:04:00,
2014-10-01 07:09:00,48.4,44.1,29.95,NW,315,0.0,0.0,85,0.00,,,0.00,meteohub,2014-10-01 14:09:00,
2014-10-01 07:11:00,48.4,44.1,29.95,NW,315,0.0,0.0,85,0.00,,,0.00,meteohub,2014-10-01 14:11:00,
2014-10-01 07:16:00,48.4,44.1,29.95,SE,135,0.0,0.0,85,0.00,,,0.00,meteohub,2014-10-01 14:16:00,
2014-10-01 07:21:00,48.6,44.2,29.95,NNE,23,0.0,0.0,85,0.00,,,0.00,meteohub,2014-10-01 14:21:00,
2014-10-01 07:26:00,48.6,44.2,29.96,SE,135,0.0,0.0,85,0.00,,,0.00,meteohub,2014-10-01 14:26:00,
2014-10-01 07:31:00,48.6,44.2,29.96,NW,315,0.0,0.0,85,0.00,,,0.00,meteohub,2014-10-01 14:31:00,
2014-10-01 07:36:00,48.6,44.2,29.96,NE,45,0.0,0.0,85,0.00,,,0.00,meteohub,2014-10-01 14:36:00,
2014-10-01 07:41:00,48.7,44.4,29.96,WNW,293,0.0,0.0,85,0.00,,,0.00,meteohub,2014-10-01 14:41:00,
2014-10-01 07:46:00,48.7,44.4,29.96,NNE,23,0.0,0.0,85,0.00,,,0.00,meteohub,2014-10-01 14:46:00,
2014-10-01 07:51:00,48.7,44.8,29.96,South,180,0.0,0.0,86,0.00,,,0.00,meteohub,2014-10-01 14:51:00,
2014-10-01 07:56:00,48.9,45.0,29.96,SE,135,0.0,0.0,86,0.00,,,0.00,meteohub,2014-10-01 14:56:00,
2014-10-01 08:01:00,49.1,45.1,29.96,NW,315,0.0,0.0,86,0.00,,,0.00,meteohub,2014-10-01 15:01:00,
2014-10-01 08:06:00,49.5,45.5,29.97,West,270,0.0,0.0,86,0.00,,,0.00,meteohub,2014-10-01 15:06:00,
2014-10-01 08:11:00,49.6,45.9,29.97,SW,225,0.0,0.0,87,0.00,,,0.00,meteohub,2014-10-01 15:11:00,
2014-10-01 08:16:00,50.2,46.4,29.97,North,0,0.0,0.0,87,0.00,,,0.00,meteohub,2014-10-01 15:16:00,
2014-10-01 08:21:00,50.4,46.6,29.97,South,180,0.0,0.0,87,0.00,,,0.00,meteohub,2014-10-01 15:21:00,
2014-10-01 08:26:00,50.9,47.5,29.97,NE,45,0.0,0.0,88,0.00,,,0.00,meteohub,2014-10-01 15:26:00,
2014-10-01 08:31:00,51.1,47.7,29.97,SW,225,0.0,0.0,88,0.00,,,0.00,meteohub,2014-10-01 15:31:00,
2014-10-01 08:36:00,51.6,48.2,29.97,NE,45,0.0,0.0,88,0.00,,,0.00,meteohub,2014-10-01 15:36:00,
2014-10-01 08:40:00,52.2,48.7,29.97,NNE,23,2.0,0.0,88,0.00,,,0.00,meteohub,2014-10-01 15:40:00,
2014-10-01 08:45:00,52.7,49.5,29.97,SE,135,1.0,2.0,89,0.00,,,0.00,meteohub,2014-10-01 15:45:00,
2014-10-01 08:50:00,53.2,50.0,29.97,WSW,248,0.0,2.0,89,0.00,,,0.00,meteohub,2014-10-01 15:50:00,
2014-10-01 08:55:00,54.1,50.9,29.97,WNW,293,0.0,2.0,89,0.00,,,0.00,meteohub,2014-10-01 15:55:00,
2014-10-01 09:00:00,54.5,51.3,29.97,West,270,2.0,3.0,89,0.00,,,0.00,meteohub,2014-10-01 16:00:00,
2014-10-01 09:05:00,55.2,52.3,29.97,West,270,0.0,3.0,90,0.00,,,0.00,meteohub,2014-10-01 16:05:00,
2014-10-01 09:10:00,55.4,52.2,29.97,SE,135,0.0,2.0,89,0.00,,,0.00,meteohub,2014-10-01 16:10:00,
2014-10-01 09:15:00,55.8,52.9,29.97,South,180,0.0,2.0,90,0.00,,,0.00,meteohub,2014-10-01 16:15:00,
2014-10-01 09:20:00,56.1,53.2,29.97,SW,225,2.0,2.0,90,0.00,,,0.00,meteohub,2014-10-01 16:20:00,
2014-10-01 09:25:00,56.5,53.6,29.98,SW,225,0.0,2.0,90,0.00,,,0.00,meteohub,2014-10-01 16:25:00,
2014-10-01 09:30:00,57.0,53.8,29.98,ESE,113,1.0,2.0,89,0.00,,,0.00,meteohub,2014-10-01 16:30:00,
2014-10-01 09:35:00,57.4,54.1,29.98,SW,225,1.0,2.0,89,0.00,,,0.00,meteohub,2014-10-01 16:35:00,
2014-10-01 09:40:00,57.9,54.3,29.98,East,90,4.0,4.0,88,0.00,,,0.00,meteohub,2014-10-01 16:40:00,
2014-10-01 09:45:00,58.6,55.0,29.98,SE,135,3.0,4.0,88,0.00,,,0.00,meteohub,2014-10-01 16:45:00,
2014-10-01 09:50:00,59.0,55.2,29.98,South,180,3.0,4.0,87,0.00,,,0.00,meteohub,2014-10-01 16:50:00,
2014-10-01 09:55:00,60.1,55.6,29.98,SSE,158,4.0,4.0,85,0.00,,,0.00,meteohub,2014-10-01 16:55:00,
2014-10-01 10:00:00,61.0,55.8,29.98,WSW,248,3.0,4.0,83,0.00,,,0.00,meteohub,2014-10-01 17:00:00,
2014-10-01 10:05:00,61.9,55.9,29.99,SE,135,3.0,4.0,81,0.00,,,0.00,meteohub,2014-10-01 17:05:00,
2014-10-01 10:10:00,62.6,55.9,29.99,SSW,203,3.0,4.0,79,0.00,,,0.00,meteohub,2014-10-01 17:10:00,
2014-10-01 10:15:00,63.5,56.1,29.99,South,180,2.0,3.0,77,0.00,,,0.00,meteohub,2014-10-01 17:15:00,
2014-10-01 10:20:00,65.5,57.4,29.99,SSW,203,3.0,4.0,75,0.00,,,0.00,meteohub,2014-10-01 17:20:00,
2014-10-01 10:25:00,67.1,58.1,29.99,SW,225,1.0,5.0,73,0.00,,,0.00,meteohub,2014-10-01 17:25:00,
2014-10-01 10:30:00,69.6,59.4,29.99,SW,225,3.0,5.0,70,0.00,,,0.00,meteohub,2014-10-01 17:30:00,
2014-10-01 10:35:00,71.1,60.4,29.99,WSW,248,3.0,5.0,69,0.00,,,0.00,meteohub,2014-10-01 17:35:00,
2014-10-01 10:39:00,72.7,61.2,29.99,South,180,2.0,5.0,67,0.00,,,0.00,meteohub,2014-10-01 17:39:00,
2014-10-01 10:44:00,74.1,60.3,29.98,SE,135,3.0,5.0,62,0.00,,,0.00,meteohub,2014-10-01 17:44:00,
2014-10-01 10:49:00,75.2,60.8,29.98,SW,225,0.0,7.0,61,0.00,,,0.00,meteohub,2014-10-01 17:49:00,
2014-10-01 10:54:00,76.3,61.0,29.98,SSE,158,3.0,7.0,59,0.00,,,0.00,meteohub,2014-10-01 17:54:00,
2014-10-01 10:59:00,77.5,61.5,29.98,SE,135,3.0,7.0,58,0.00,,,0.00,meteohub,2014-10-01 17:59:00,
2014-10-01 11:04:00,78.1,61.2,29.99,NW,315,4.0,4.0,56,0.00,,,0.00,meteohub,2014-10-01 18:04:00,
2014-10-01 11:09:00,78.8,59.2,29.99,NW,315,3.0,5.0,51,0.00,,,0.00,meteohub,2014-10-01 18:09:00,
2014-10-01 11:14:00,79.3,59.0,29.99,SW,225,2.0,5.0,50,0.00,,,0.00,meteohub,2014-10-01 18:14:00,
2014-10-01 11:19:00,80.1,59.2,29.99,WSW,248,2.0,5.0,49,0.00,,,0.00,meteohub,2014-10-01 18:19:00,
2014-10-01 11:24:00,81.1,59.5,29.99,West,270,3.0,3.0,48,0.00,,,0.00,meteohub,2014-10-01 18:24:00,
2014-10-01 11:29:00,81.9,59.0,29.99,SW,225,7.0,7.0,46,0.00,,,0.00,meteohub,2014-10-01 18:29:00,
2014-10-01 11:34:00,82.4,59.0,29.99,NNE,23,1.0,7.0,45,0.00,,,0.00,meteohub,2014-10-01 18:34:00,
2014-10-01 11:39:00,82.6,57.7,29.99,South,180,1.0,7.0,43,0.00,,,0.00,meteohub,2014-10-01 18:39:00,
2014-10-01 11:44:00,83.5,59.4,29.99,SSW,203,3.0,7.0,44,0.00,,,0.00,meteohub,2014-10-01 18:44:00,
2014-10-01 11:49:00,84.2,59.4,29.99,South,180,2.0,4.0,43,0.00,,,0.00,meteohub,2014-10-01 18:49:00,
2014-10-01 11:54:00,84.4,57.4,29.99,SSE,158,3.0,4.0,40,0.00,,,0.00,meteohub,2014-10-01 18:54:00,
2014-10-01 11:59:00,84.7,58.5,29.99,NW,315,0.0,6.0,41,0.00,,,0.00,meteohub,2014-10-01 18:59:00,
2014-10-01 12:04:00,85.5,58.5,30.00,WNW,293,4.0,6.0,40,0.00,,,0.00,meteohub,2014-10-01 19:04:00,
2014-10-01 12:09:00,85.6,58.5,30.00,WNW,293,3.0,4.0,40,0.00,,,0.00,meteohub,2014-10-01 19:09:00,
2014-10-01 12:14:00,85.3,57.6,30.00,SE,135,2.0,4.0,39,0.00,,,0.00,meteohub,2014-10-01 19:14:00,
2014-10-01 12:19:00,84.6,56.1,30.00,NW,315,3.0,4.0,38,0.00,,,0.00,meteohub,2014-10-01 19:19:00,
2014-10-01 12:24:00,83.7,56.1,29.99,ESE,113,3.0,3.0,39,0.00,,,0.00,meteohub,2014-10-01 19:24:00,
2014-10-01 12:29:00,83.3,55.0,29.99,SE,135,3.0,3.0,38,0.00,,,0.00,meteohub,2014-10-01 19:29:00,
2014-10-01 12:34:00,82.2,54.1,29.99,West,270,1.0,3.0,38,0.00,,,0.00,meteohub,2014-10-01 19:34:00,
2014-10-01 12:37:00,81.9,53.8,29.99,NW,315,3.0,3.0,38,0.00,,,0.00,meteohub,2014-10-01 19:37:00,
2014-10-01 12:42:00,81.9,53.8,29.99,SE,135,3.0,3.0,38,0.00,,,0.00,meteohub,2014-10-01 19:42:00,
2014-10-01 12:47:00,81.7,53.6,29.99,North,0,0.0,7.0,38,0.00,,,0.00,meteohub,2014-10-01 19:47:00,
2014-10-01 12:52:00,81.7,53.6,29.99,WNW,293,3.0,7.0,38,0.00,,,0.00,meteohub,2014-10-01 19:52:00,
2014-10-01 12:57:00,81.0,53.6,29.99,NW,315,2.0,3.0,39,0.00,,,0.00,meteohub,2014-10-01 19:57:00,
2014-10-01 13:02:00,80.8,54.1,29.99,NNE,23,4.0,5.0,40,0.00,,,0.00,meteohub,2014-10-01 20:02:00,
2014-10-01 13:07:00,80.8,54.1,29.99,SSE,158,2.0,5.0,40,0.00,,,0.00,meteohub,2014-10-01 20:07:00,
2014-10-01 13:12:00,80.8,54.1,29.99,SSE,158,2.0,4.0,40,0.00,,,0.00,meteohub,2014-10-01 20:12:00,
2014-10-01 13:17:00,81.7,54.3,29.99,WSW,248,3.0,4.0,39,0.00,,,0.00,meteohub,2014-10-01 20:17:00,
2014-10-01 13:20:00,82.0,54.7,29.99,NW,315,3.0,4.0,39,0.00,,,0.00,meteohub,2014-10-01 20:20:00,
2014-10-01 13:25:00,82.2,54.1,29.99,North,0,2.0,3.0,38,0.00,,,0.00,meteohub,2014-10-01 20:25:00,
2014-10-01 13:30:00,82.2,55.6,29.99,ENE,68,2.0,3.0,40,0.00,,,0.00,meteohub,2014-10-01 20:30:00,
2014-10-01 13:35:00,82.8,55.9,29.99,NW,315,5.0,5.0,40,0.00,,,0.00,meteohub,2014-10-01 20:35:00,
2014-10-01 13:40:00,84.2,57.2,29.99,WSW,248,3.0,5.0,40,0.00,,,0.00,meteohub,2014-10-01 20:40:00,
2014-10-01 13:45:00,85.1,58.1,29.99,NE,45,2.0,5.0,40,0.00,,,0.00,meteohub,2014-10-01 20:45:00,
2014-10-01 13:50:00,85.8,55.0,29.99,WNW,293,5.0,7.0,35,0.00,,,0.00,meteohub,2014-10-01 20:50:00,
2014-10-01 13:55:00,86.4,57.7,29.99,WNW,293,2.0,7.0,38,0.00,,,0.00,meteohub,2014-10-01 20:55:00,
2014-10-01 14:00:00,87.4,59.4,29.99,NNW,338,2.0,7.0,39,0.00,,,0.00,meteohub,2014-10-01 21:00:00,
2014-10-01 14:05:00,88.2,57.9,29.99,NNE,23,4.0,5.0,36,0.00,,,0.00,meteohub,2014-10-01 21:05:00,
2014-10-01 14:10:00,88.9,59.2,29.99,NE,45,4.0,5.0,37,0.00,,,0.00,meteohub,2014-10-01 21:10:00,
2014-10-01 14:13:00,89.4,60.4,29.99,ESE,113,0.0,5.0,38,0.00,,,0.00,meteohub,2014-10-01 21:13:00,
2014-10-01 14:18:00,90.0,60.3,29.99,West,270,2.0,5.0,37,0.00,,,0.00,meteohub,2014-10-01 21:18:00,
2014-10-01 14:23:00,89.6,59.2,29.99,NW,315,4.0,4.0,36,0.00,,,0.00,meteohub,2014-10-01 21:23:00,
2014-10-01 14:28:00,89.8,60.1,29.99,ESE,113,3.0,4.0,37,0.00,,,0.00,meteohub,2014-10-01 21:28:00,
2014-10-01 14:33:00,90.0,57.7,29.99,NNW,338,8.0,8.0,34,0.00,,,0.00,meteohub,2014-10-01 21:33:00,
2014-10-01 14:42:00,90.7,60.1,29.98,North,0,4.0,8.0,36,0.00,,,0.00,meteohub,2014-10-01 21:42:00,
2014-10-01 14:47:00,90.3,59.0,29.98,NE,45,4.0,8.0,35,0.00,,,0.00,meteohub,2014-10-01 21:47:00,
2014-10-01 14:49:00,90.3,59.0,29.98,NE,45,4.0,8.0,35,0.00,,,0.00,meteohub,2014-10-01 21:49:00,
2014-10-01 14:54:00,89.6,56.7,29.98,NW,315,9.0,9.0,33,0.00,,,0.00,meteohub,2014-10-01 21:54:00,
2014-10-01 14:59:00,89.6,57.6,29.98,NNW,338,4.0,9.0,34,0.00,,,0.00,meteohub,2014-10-01 21:59:00,
2014-10-01 15:04:00,89.6,57.6,29.99,WNW,293,5.0,9.0,34,0.00,,,0.00,meteohub,2014-10-01 22:04:00,
2014-10-01 15:09:00,89.1,56.3,29.99,WNW,293,6.0,9.0,33,0.00,,,0.00,meteohub,2014-10-01 22:09:00,
2014-10-01 15:14:00,88.7,55.9,29.99,NW,315,3.0,6.0,33,0.00,,,0.00,meteohub,2014-10-01 22:14:00,
2014-10-01 15:19:00,88.7,56.7,29.99,NW,315,3.0,6.0,34,0.00,,,0.00,meteohub,2014-10-01 22:19:00,
2014-10-01 15:24:00,88.9,56.8,29.99,East,90,4.0,6.0,34,0.00,,,0.00,meteohub,2014-10-01 22:24:00,
2014-10-01 15:29:00,88.3,54.7,29.99,NE,45,4.0,6.0,32,0.00,,,0.00,meteohub,2014-10-01 22:29:00,
2014-10-01 15:34:00,88.2,56.3,29.99,NNE,23,0.0,11.0,34,0.00,,,0.00,meteohub,2014-10-01 22:34:00,
2014-10-01 15:40:00,88.0,54.5,29.99,West,270,7.0,11.0,32,0.00,,,0.00,meteohub,2014-10-01 22:40:00,
2014-10-01 15:45:00,86.9,53.4,29.99,NNW,338,4.0,11.0,32,0.00,,,0.00,meteohub,2014-10-01 22:45:00,
2014-10-01 15:50:00,86.9,54.3,29.99,NNE,23,5.0,9.0,33,0.00,,,0.00,meteohub,2014-10-01 22:50:00,
2014-10-01 15:55:00,87.3,53.8,29.99,WNW,293,7.0,7.0,32,0.00,,,0.00,meteohub,2014-10-01 22:55:00,
2014-10-01 16:00:00,87.1,54.5,29.99,NW,315,2.0,5.0,33,0.00,,,0.00,meteohub,2014-10-01 23:00:00,
2014-10-01 16:05:00,87.1,55.2,29.99,NW,315,2.0,7.0,34,0.00,,,0.00,meteohub,2014-10-01 23:05:00,
2014-10-01 16:10:00,86.5,54.9,29.99,NNE,23,2.0,7.0,34,0.00,,,0.00,meteohub,2014-10-01 23:10:00,
2014-10-01 16:15:00,85.1,53.6,29.99,WNW,293,3.0,4.0,34,0.00,,,0.00,meteohub,2014-10-01 23:15:00,
2014-10-01 16:20:00,84.0,51.8,29.99,ENE,68,1.0,4.0,33,0.00,,,0.00,meteohub,2014-10-01 23:20:00,
2014-10-01 16:25:00,82.4,49.6,30.00,NNW,338,4.0,5.0,32,0.00,,,0.00,meteohub,2014-10-01 23:25:00,
2014-10-01 16:30:00,82.0,51.6,30.00,WNW,293,3.0,6.0,35,0.00,,,0.00,meteohub,2014-10-01 23:30:00,
2014-10-01 16:34:00,81.5,51.3,30.00,North,0,0.0,6.0,35,0.00,,,0.00,meteohub,2014-10-01 23:34:00,
2014-10-01 16:35:00,81.5,51.3,30.00,North,0,0.0,6.0,35,0.00,,,0.00,meteohub,2014-10-01 23:35:00,
2014-10-01 16:40:00,81.1,51.6,30.00,WNW,293,2.0,6.0,36,0.00,,,0.00,meteohub,2014-10-01 23:40:00,
2014-10-01 16:45:00,80.6,52.0,30.00,North,0,0.0,4.0,37,0.00,,,0.00,meteohub,2014-10-01 23:45:00,
2014-10-01 16:50:00,79.9,52.0,30.00,WNW,293,2.0,3.0,38,0.00,,,0.00,meteohub,2014-10-01 23:50:00,
2014-10-01 16:55:00,79.5,52.3,30.00,SW,225,2.0,3.0,39,0.00,,,0.00,meteohub,2014-10-01 23:55:00,
2014-10-01 17:00:00,79.3,52.2,30.00,WNW,293,2.0,3.0,39,0.00,,,0.00,meteohub,2014-10-02 00:00:00,
2014-10-01 17:05:00,78.8,52.5,29.99,West,270,1.0,3.0,40,0.00,,,0.00,meteohub,2014-10-02 00:05:00,
2014-10-01 17:10:00,78.4,52.7,29.99,North,0,0.0,3.0,41,0.00,,,0.00,meteohub,2014-10-02 00:10:00,
2014-10-01 17:15:00,78.3,53.2,29.99,North,0,0.0,2.0,42,0.00,,,0.00,meteohub,2014-10-02 00:15:00,
2014-10-01 17:20:00,77.9,52.9,29.99,ENE,68,2.0,2.0,42,0.00,,,0.00,meteohub,2014-10-02 00:20:00,
2014-10-01 17:24:00,77.5,53.2,30.00,NW,315,1.0,4.0,43,0.00,,,0.00,meteohub,2014-10-02 00:24:00,
2014-10-01 17:30:00,77.2,52.3,30.00,ENE,68,1.0,4.0,42,0.00,,,0.00,meteohub,2014-10-02 00:30:00,
2014-10-01 17:35:00,76.8,52.7,30.00,NNW,338,0.0,4.0,43,0.00,,,0.00,meteohub,2014-10-02 00:35:00,
2014-10-01 17:40:00,76.5,52.3,30.00,ENE,68,0.0,3.0,43,0.00,,,0.00,meteohub,2014-10-02 00:40:00,
2014-10-01 17:45:00,76.1,52.5,30.00,NW,315,0.0,3.0,44,0.00,,,0.00,meteohub,2014-10-02 00:45:00,
2014-10-01 17:50:00,75.6,52.2,30.00,NNW,338,0.0,0.0,44,0.00,,,0.00,meteohub,2014-10-02 00:50:00,
2014-10-01 17:55:00,75.2,51.8,30.00,NW,315,0.0,0.0,44,0.00,,,0.00,meteohub,2014-10-02 00:55:00,
2014-10-01 18:00:00,74.8,51.4,30.00,NE,45,0.0,0.0,44,0.00,,,0.00,meteohub,2014-10-02 01:00:00,
2014-10-01 18:05:00,74.5,51.8,30.00,North,0,0.0,0.0,45,0.00,,,0.00,meteohub,2014-10-02 01:05:00,
2014-10-01 18:10:00,74.3,51.6,30.00,NNE,23,0.0,0.0,45,0.00,,,0.00,meteohub,2014-10-02 01:10:00,
2014-10-01 18:15:00,73.9,51.3,30.00,NNW,338,0.0,0.0,45,0.00,,,0.00,meteohub,2014-10-02 01:15:00,
2014-10-01 18:20:00,73.8,51.1,30.00,NW,315,0.0,0.0,45,0.00,,,0.00,meteohub,2014-10-02 01:20:00,
2014-10-01 18:25:00,73.2,51.8,30.00,ENE,68,0.0,0.0,47,0.00,,,0.00,meteohub,2014-10-02 01:25:00,
2014-10-01 18:30:00,72.9,51.4,30.00,NW,315,0.0,0.0,47,0.00,,,0.00,meteohub,2014-10-02 01:30:00,
2014-10-01 18:34:00,72.7,51.3,30.00,NW,315,0.0,0.0,47,0.00,,,0.00,meteohub,2014-10-02 01:34:00,
2014-10-01 18:39:00,72.3,50.9,30.00,NE,45,0.0,0.0,47,0.00,,,0.00,meteohub,2014-10-02 01:39:00,
2014-10-01 18:44:00,71.8,50.5,29.99,ESE,113,0.0,0.0,47,0.00,,,0.00,meteohub,2014-10-02 01:44:00,
2014-10-01 18:49:00,71.4,50.7,29.99,NW,315,0.0,0.0,48,0.00,,,0.00,meteohub,2014-10-02 01:49:00,
2014-10-01 18:54:00,70.9,50.2,29.99,NNE,23,0.0,0.0,48,0.00,,,0.00,meteohub,2014-10-02 01:54:00,
2014-10-01 18:59:00,70.7,50.0,29.99,NNE,23,0.0,0.0,48,0.00,,,0.00,meteohub,2014-10-02 01:59:00,
2014-10-01 19:04:00,70.3,49.6,29.99,ENE,68,0.0,0.0,48,0.00,,,0.00,meteohub,2014-10-02 02:04:00,
2014-10-01 19:09:00,69.8,49.8,29.99,SSW,203,0.0,0.0,49,0.00,,,0.00,meteohub,2014-10-02 02:09:00,
2014-10-01 19:14:00,69.4,49.5,29.99,SW,225,0.0,0.0,49,0.00,,,0.00,meteohub,2014-10-02 02:14:00,
2014-10-01 19:19:00,68.9,50.0,29.99,SE,135,0.0,0.0,51,0.00,,,0.00,meteohub,2014-10-02 02:19:00,
2014-10-01 19:24:00,68.9,50.5,30.01,SSE,158,0.0,0.0,52,0.00,,,0.00,meteohub,2014-10-02 02:24:00,
2014-10-01 19:29:00,68.4,50.5,30.01,ENE,68,0.0,0.0,53,0.00,,,0.00,meteohub,2014-10-02 02:29:00,
2014-10-01 19:34:00,68.0,50.7,30.01,ENE,68,0.0,0.0,54,0.00,,,0.00,meteohub,2014-10-02 02:34:00,
2014-10-01 19:39:00,67.6,50.9,30.01,ENE,68,0.0,0.0,55,0.00,,,0.00,meteohub,2014-10-02 02:39:00,
2014-10-01 19:44:00,67.1,50.9,30.01,ESE,113,0.0,0.0,56,0.00,,,0.00,meteohub,2014-10-02 02:44:00,
2014-10-01 19:49:00,66.9,50.7,30.01,ESE,113,0.0,0.0,56,0.00,,,0.00,meteohub,2014-10-02 02:49:00,
2014-10-01 19:54:00,66.6,50.9,30.01,ENE,68,0.0,0.0,57,0.00,,,0.00,meteohub,2014-10-02 02:54:00,
2014-10-01 19:59:00,66.2,50.5,30.01,SE,135,0.0,0.0,57,0.00,,,0.00,meteohub,2014-10-02 02:59:00,
2014-10-01 20:04:00,66.0,50.9,30.01,SSW,203,0.0,0.0,58,0.00,,,0.00,meteohub,2014-10-02 03:04:00,
2014-10-01 20:09:00,65.7,50.5,30.01,SW,225,0.0,0.0,58,0.00,,,0.00,meteohub,2014-10-02 03:09:00,
2014-10-01 20:14:00,65.3,50.2,30.01,North,0,0.0,0.0,58,0.00,,,0.00,meteohub,2014-10-02 03:14:00,
2014-10-01 20:19:00,64.9,49.8,30.01,SE,135,0.0,0.0,58,0.00,,,0.00,meteohub,2014-10-02 03:19:00,
2014-10-01 20:24:00,64.6,49.5,30.02,NNE,23,0.0,0.0,58,0.00,,,0.00,meteohub,2014-10-02 03:24:00,
2014-10-01 20:29:00,64.2,49.1,30.02,West,270,0.0,0.0,58,0.00,,,0.00,meteohub,2014-10-02 03:29:00,
2014-10-01 20:32:00,64.0,49.5,30.02,WSW,248,0.0,0.0,59,0.00,,,0.00,meteohub,2014-10-02 03:32:00,
2014-10-01 20:37:00,63.9,49.3,30.02,ENE,68,0.0,0.0,59,0.00,,,0.00,meteohub,2014-10-02 03:37:00,
2014-10-01 20:42:00,63.5,48.9,30.02,East,90,0.0,0.0,59,0.00,,,0.00,meteohub,2014-10-02 03:42:00,
2014-10-01 20:47:00,63.1,48.6,30.02,East,90,0.0,0.0,59,0.00,,,0.00,meteohub,2014-10-02 03:47:00,
2014-10-01 20:52:00,62.8,48.2,30.02,SSW,203,0.0,0.0,59,0.00,,,0.00,meteohub,2014-10-02 03:52:00,
2014-10-01 20:57:00,62.6,48.0,30.02,ESE,113,0.0,0.0,59,0.00,,,0.00,meteohub,2014-10-02 03:57:00,
2014-10-01 21:02:00,62.4,47.8,30.02,West,270,0.0,0.0,59,0.00,,,0.00,meteohub,2014-10-02 04:02:00,
2014-10-01 21:07:00,62.1,47.5,30.02,NNE,23,0.0,1.0,59,0.00,,,0.00,meteohub,2014-10-02 04:07:00,
2014-10-01 21:12:00,61.7,47.3,30.02,NE,45,0.0,1.0,59,0.00,,,0.00,meteohub,2014-10-02 04:12:00,
2014-10-01 21:17:00,61.5,47.1,30.02,WNW,293,2.0,0.0,59,0.00,,,0.00,meteohub,2014-10-02 04:17:00,
2014-10-01 21:22:00,61.3,46.9,30.02,West,270,0.0,0.0,59,0.00,,,0.00,meteohub,2014-10-02 04:22:00,
2014-10-01 21:27:00,61.2,46.2,30.02,ESE,113,0.0,2.0,58,0.00,,,0.00,meteohub,2014-10-02 04:27:00,
2014-10-01 21:32:00,61.0,46.0,30.02,SW,225,0.0,2.0,58,0.00,,,0.00,meteohub,2014-10-02 04:32:00,
2014-10-01 21:37:00,61.0,46.0,30.02,SE,135,0.0,2.0,58,0.00,,,0.00,meteohub,2014-10-02 04:37:00,
2014-10-01 21:42:00,61.0,46.0,30.01,NNE,23,0.0,2.0,58,0.00,,,0.00,meteohub,2014-10-02 04:42:00,
2014-10-01 21:47:00,61.0,46.0,30.01,NE,45,0.0,2.0,58,0.00,,,0.00,meteohub,2014-10-02 04:47:00,
2014-10-01 21:52:00,60.8,45.5,30.01,South,180,0.0,0.0,57,0.00,,,0.00,meteohub,2014-10-02 04:52:00,
2014-10-01 21:57:00,60.6,45.7,30.01,SE,135,0.0,0.0,58,0.00,,,0.00,meteohub,2014-10-02 04:57:00,
2014-10-01 22:02:00,60.4,45.7,30.01,SE,135,0.0,0.0,58,0.00,,,0.00,meteohub,2014-10-02 05:02:00,
2014-10-01 22:07:00,60.3,45.5,30.03,ENE,68,0.0,0.0,58,0.00,,,0.00,meteohub,2014-10-02 05:07:00,
2014-10-01 22:12:00,60.3,45.0,30.03,East,90,0.0,0.0,57,0.00,,,0.00,meteohub,2014-10-02 05:12:00,
2014-10-01 22:17:00,60.1,44.8,30.03,ENE,68,0.0,0.0,57,0.00,,,0.00,meteohub,2014-10-02 05:17:00,
2014-10-01 22:21:00,59.9,44.6,30.03,NNW,338,0.0,0.0,57,0.00,,,0.00,meteohub,2014-10-02 05:21:00,
2014-10-01 22:26:00,59.5,44.2,30.04,SSE,158,0.0,0.0,57,0.00,,,0.00,meteohub,2014-10-02 05:26:00,
2014-10-01 22:31:00,59.5,44.2,30.04,ENE,68,0.0,0.0,57,0.00,,,0.00,meteohub,2014-10-02 05:31:00,
2014-10-01 22:36:00,59.4,44.1,30.04,ESE,113,0.0,0.0,57,0.00,,,0.00,meteohub,2014-10-02 05:36:00,
2014-10-01 22:41:00,59.2,43.9,30.04,North,0,0.0,0.0,57,0.00,,,0.00,meteohub,2014-10-02 05:41:00,
2014-10-01 22:46:00,58.8,43.7,30.03,SE,135,0.0,0.0,57,0.00,,,0.00,meteohub,2014-10-02 05:46:00,
2014-10-01 22:51:00,58.6,43.5,30.03,East,90,0.0,0.0,57,0.00,,,0.00,meteohub,2014-10-02 05:51:00,
2014-10-01 22:56:00,58.5,43.3,30.03,SE,135,0.0,2.0,57,0.00,,,0.00,meteohub,2014-10-02 05:56:00,
2014-10-01 23:01:00,58.3,43.2,30.03,SE,135,2.0,2.0,57,0.00,,,0.00,meteohub,2014-10-02 06:01:00,
2014-10-01 23:06:00,58.3,43.5,30.03,SE,135,0.0,2.0,58,0.00,,,0.00,meteohub,2014-10-02 06:06:00,
2014-10-01 23:11:00,58.3,43.5,30.03,SSE,158,0.0,2.0,58,0.00,,,0.00,meteohub,2014-10-02 06:11:00,
2014-10-01 23:16:00,58.3,43.5,30.03,SSE,158,0.0,2.0,58,0.00,,,0.00,meteohub,2014-10-02 06:16:00,
2014-10-01 23:21:00,58.1,43.3,30.03,ESE,113,0.0,0.0,58,0.00,,,0.00,meteohub,2014-10-02 06:21:00,
2014-10-01 23:26:00,57.9,43.2,30.04,NW,315,0.0,0.0,58,0.00,,,0.00,meteohub,2014-10-02 06:26:00,